GFSSW_850_temp_159.txt.gz
Temp
16 16 16 16 16 16 17 17 17 18 18 18 19 19 20 20 21 22 23 23 24 23 23 23 23 22 22 20 19 17 17 17 18 19 19 19 22 21 21 19 20 20 18 19 17
16 16 16 16 17 17 17 17 17 17 18 18 18 19 20 20 21 23 23 24 23 24 24 24 24 23 22 19 18 17 17 17 17 18 18 19 20 22 21 20 18 18 18 17 17
16 16 17 17 17 17 17 17 17 17 18 18 19 19 20 21 22 23 23 24 23 24 24 24 24 23 22 21 19 19 18 18 18 17 17 18 23 23 21 19 19 17 17 17 17
16 17 17 17 17 17 17 18 18 18 18 19 19 19 20 20 21 23 23 23 23 24 24 24 23 23 22 20 19 19 18 19 17 18 17 19 19 22 21 21 21 21 20 18 18
16 17 17 18 18 18 18 18 18 18 18 19 19 19 20 21 23 23 23 23 23 24 24 24 24 24 22 20 20 18 18 18 18 18 18 18 20 21 23 22 19 18 18 18 18
17 17 17 18 18 18 18 18 18 18 18 19 19 20 20 20 23 23 23 23 23 24 24 24 25 24 20 20 20 19 18 18 18 18 18 20 22 22 22 20 18 18 18 19 19
16 17 17 18 18 19 18 19 19 19 19 19 19 20 20 23 23 23 23 23 24 24 25 25 24 24 22 20 20 19 18 19 19 18 19 18 21 21 21 20 18 17 18 19 19
17 17 18 18 19 19 19 19 19 19 19 20 20 20 22 23 23 23 23 23 24 24 25 25 25 23 22 20 19 20 19 18 19 19 19 19 20 20 20 20 19 18 18 18 20
17 17 18 19 19 20 20 20 20 20 20 20 20 20 22 23 23 23 23 24 24 24 25 25 25 22 21 18 17 18 19 19 18 20 19 18 20 20 20 21 19 19 18 19 19
17 18 18 19 20 20 21 21 21 21 21 20 20 19 23 24 24 24 24 24 24 25 25 25 24 20 16 19 21 19 18 19 20 19 19 18 19 19 20 20 20 20 19 19 19
17 18 19 19 21 21 21 21 21 21 20 22 22 22 23 24 24 24 24 24 24 25 22 23 20 19 19 20 22 21 20 21 20 20 20 18 19 18 18 19 19 20 20 19 20
17 18 19 20 21 22 22 22 20 20 20 23 23 22 24 24 24 25 25 25 24 22 22 19 20 21 22 22 22 21 21 21 21 21 20 18 18 18 17 18 20 20 20 19 20
17 19 19 20 21 22 22 21 21 21 19 23 24 25 25 25 24 25 25 24 23 22 21 20 22 24 23 23 21 20 20 20 22 21 21 20 19 18 18 18 20 20 21 21 21
18 19 20 20 21 22 22 22 21 22 16 20 24 25 25 25 24 26 25 25 23 22 20 20 22 23 23 23 22 19 22 23 22 20 19 20 19 18 17 17 17 19 19 20 21
18 19 20 20 21 21 21 22 23 23 19 24 25 27 26 25 26 25 26 25 23 24 23 22 24 24 23 23 23 22 24 23 22 19 20 19 18 19 16 17 18 18 20 20 20
18 19 20 21 21 21 22 22 23 17 20 24 25 24 24 25 25 25 25 25 25 24 22 22 25 25 24 26 24 24 21 18 15 16 18 19 19 18 16 17 19 19 19 21 21
19 19 20 21 22 21 22 23 17 18 22 24 24 23 23 23 24 24 24 23 21 22 21 22 24 25 27 26 24 20 19 16 18 18 18 18 19 18 19 19 19 19 19 20 21
20 21 21 21 21 21 22 18 19 21 22 24 24 23 23 22 22 23 23 21 22 21 19 21 21 25 25 24 23 22 19 17 20 17 19 18 19 19 18 18 19 19 20 19 20
20 21 22 22 21 21 22 16 18 20 23 23 25 25 23 24 24 23 21 20 21 20 21 20 21 24 24 25 24 23 21 20 17 16 17 17 19 18 18 19 19 19 20 19 20
20 21 21 22 21 21 16 16 18 20 23 23 24 24 24 24 24 22 21 24 24 21 22 22 22 23 23 25 23 24 21 21 16 21 21 18 18 17 20 19 17 18 19 19 19
19 21 21 21 21 21 15 15 19 23 24 22 24 24 24 24 24 23 24 25 26 23 23 20 20 22 21 20 20 19 19 16 15 15 17 17 17 17 18 18 18 18 19 20 19
17 15 20 20 19 13 14 17 22 22 24 22 23 24 25 24 24 24 24 24 26 25 24 21 16 18 20 20 19 18 18 15 16 18 14 15 16 18 17 17 17 18 19 20 19
14 16 19 19 15 14 16 19 21 21 22 23 23 24 24 24 23 24 24 26 26 24 22 22 17 16 18 18 19 19 19 16 13 13 15 16 16 17 17 17 18 18 18 18 19
14 11 18 19 18 16 16 18 20 22 22 23 23 24 24 24 23 24 25 26 26 25 24 21 14 17 17 18 18 19 19 18 16 15 15 14 18 19 17 17 16 17 17 18 18
13 12 13 11 14 14 15 17 19 19 22 23 22 23 23 23 23 23 24 24 24 24 21 18 18 18 18 19 19 19 19 17 17 17 17 17 16 18 17 15 16 16 16 17 17
12 12 13 13 14 14 15 18 18 18 19 20 21 22 22 21 22 23 22 22 23 23 22 15 17 18 18 18 18 18 18 17 17 17 15 16 16 16 16 16 15 16 16 16 16
12 11 11 13 12 14 14 16 17 17 18 20 21 20 21 22 25 26 25 24 22 21 19 17 14 15 17 16 16 17 18 17 18 17 17 16 16 15 15 15 14 15 16 17 17

GFSSW_850_temp_162.txt.gz
Temp
16 16 16 16 16 16 17 17 17 18 18 18 19 19 20 20 21 22 23 24 23 23 23 23 22 22 21 20 19 18 17 18 18 19 19 19 20 21 20 19 19 18 19 18 17
16 16 16 17 17 17 17 17 17 18 18 19 19 19 20 20 21 23 23 24 24 23 23 23 22 22 21 19 19 18 17 18 17 17 19 19 19 21 20 19 17 18 18 18 17
16 16 17 17 17 17 17 17 18 18 18 19 19 19 20 21 22 22 23 24 23 23 23 23 23 22 21 19 18 18 18 18 17 17 17 18 20 22 20 18 18 18 18 17 17
16 17 17 17 17 17 18 18 18 18 18 19 19 20 20 21 20 23 23 23 23 23 24 24 23 23 20 19 19 18 18 19 18 17 17 19 19 22 21 21 21 20 20 18 17
17 17 17 17 18 18 18 18 18 18 18 19 20 20 20 21 22 23 23 23 23 23 24 24 24 23 20 19 19 18 17 18 17 19 19 18 20 20 21 21 20 19 19 18 18
17 17 17 18 18 18 18 18 18 18 19 19 20 20 20 21 22 23 22 23 23 23 24 24 24 23 20 19 19 18 18 18 18 18 18 18 20 20 21 21 20 19 18 18 18
17 17 18 18 18 19 19 19 19 19 19 20 20 20 21 22 22 22 22 23 23 24 24 24 24 23 21 19 19 19 18 19 18 19 18 18 20 20 19 19 19 18 18 18 18
17 17 18 18 19 19 20 20 20 20 20 20 20 20 22 22 22 23 22 23 23 24 24 24 24 22 21 20 19 19 18 18 18 18 19 19 20 19 19 19 18 18 18 19 18
17 18 18 19 19 20 20 20 20 20 20 20 20 20 22 22 23 23 23 23 23 24 24 24 23 21 20 17 17 17 18 18 19 19 18 19 20 20 19 20 19 18 19 19 19
17 18 19 19 20 21 21 21 21 20 20 19 20 20 23 23 23 24 24 23 23 24 24 24 23 17 16 17 19 18 18 19 19 19 18 17 18 18 19 18 19 18 19 19 19
17 18 19 20 21 21 21 21 20 20 20 21 22 22 23 24 24 24 24 24 23 24 21 21 19 18 19 18 21 20 19 21 20 20 19 18 18 18 18 19 19 19 18 19 20
18 18 19 20 21 21 21 21 20 19 19 22 22 22 23 23 24 24 24 24 23 21 21 19 20 20 21 20 21 21 20 20 20 19 19 18 18 18 17 18 19 19 19 19 19
18 19 19 20 21 22 21 20 21 20 18 22 23 24 25 24 23 24 24 24 22 21 21 19 22 21 22 22 21 20 19 19 22 19 19 18 18 18 18 18 19 20 20 20 21
18 19 20 20 21 21 21 21 22 22 16 21 23 25 25 25 23 25 24 24 22 21 19 20 22 22 21 22 20 20 20 21 20 19 19 19 18 18 17 17 17 19 19 20 20
18 19 20 20 21 21 21 21 22 22 19 23 24 25 25 25 25 24 25 24 22 22 21 22 23 22 22 22 21 22 22 21 20 18 19 18 18 18 16 17 17 17 19 20 20
18 19 20 21 21 21 21 22 22 17 20 24 24 24 23 24 24 24 24 25 24 23 21 21 23 24 23 24 22 21 19 17 15 16 18 19 19 18 17 18 18 18 18 20 20
19 19 21 21 21 21 22 22 17 18 22 24 23 23 23 22 23 23 22 22 20 21 21 21 23 23 25 23 22 19 17 16 18 17 17 17 18 17 19 18 18 18 19 19 20
19 20 21 21 21 21 22 18 19 20 21 22 23 22 22 21 22 23 21 21 20 20 17 19 22 24 24 23 21 19 18 16 19 16 18 18 18 19 19 18 18 19 19 19 19
19 21 21 21 21 21 21 16 18 19 22 22 22 22 22 23 23 22 21 19 20 19 21 20 22 22 23 23 23 21 20 18 15 14 16 16 18 18 18 18 18 19 19 19 19
19 20 20 20 21 20 16 16 18 19 21 21 23 24 23 23 22 21 20 22 22 19 21 21 22 22 22 23 21 22 19 19 15 18 20 17 18 17 19 18 18 18 18 19 18
18 19 19 20 20 20 14 14 18 21 23 22 22 22 23 23 21 21 22 24 24 21 22 19 19 21 20 18 18 19 18 14 14 14 16 17 16 16 18 18 18 18 19 19 18
16 14 18 19 17 11 13 16 20 21 22 21 21 20 22 23 22 21 22 23 25 22 22 20 15 16 19 19 18 18 17 15 16 18 12 14 16 18 16 17 17 18 19 18 18
13 15 17 18 15 13 14 18 20 21 21 22 23 22 23 22 23 23 24 25 24 22 20 18 15 15 17 18 19 19 18 13 12 12 14 15 16 16 16 17 17 17 17 18 18
13 10 16 17 16 14 15 17 18 21 20 22 21 22 23 23 22 22 23 24 24 23 22 20 13 16 16 18 18 19 19 16 15 15 14 14 17 18 17 16 16 17 17 17 17
13 10 11 10 13 12 14 16 18 18 19 20 22 22 22 22 22 22 23 23 22 21 20 18 19 17 17 18 18 19 19 18 17 16 17 17 15 17 16 15 15 16 17 16 16
12 11 12 12 12 13 13 15 17 17 17 19 21 19 20 21 20 20 21 21 22 22 20 14 16 18 18 18 16 17 17 17 16 17 15 14 14 15 15 15 15 16 16 16 15
11 11 11 11 10 12 12 14 15 15 17 19 18 17 17 19 24 24 23 22 21 19 17 16 13 15 17 16 17 17 17 16 17 16 16 16 15 14 14 15 15 15 16 16 15

GFSSW_850_temp_165.txt.gz
Temp
16 16 16 16 17 17 17 17 17 17 18 18 19 20 20 21 21 22 23 23 23 23 23 23 22 22 21 20 19 19 20 20 20 19 20 20 22 21 20 20 19 18 18 18 17
16 17 17 17 17 17 17 18 18 18 18 19 19 20 20 21 22 23 23 23 23 23 23 23 23 22 21 19 19 20 20 19 18 18 19 20 21 21 21 20 19 17 18 18 17
16 17 17 17 17 18 18 18 18 18 18 19 19 19 20 21 22 22 23 23 23 23 23 23 23 22 21 20 19 20 20 18 18 17 17 19 21 22 22 22 20 19 17 16 17
16 17 17 18 18 18 18 18 18 18 18 19 19 20 20 21 23 22 23 23 23 23 23 23 23 22 22 22 19 21 19 19 17 17 17 20 20 22 22 21 20 18 17 17 17
17 17 17 18 18 18 18 18 18 19 19 19 19 20 20 21 22 22 22 23 23 23 23 23 23 23 23 21 20 20 19 19 18 17 18 19 21 21 21 20 21 19 17 17 17
17 17 18 18 19 19 19 19 19 19 19 19 20 20 21 22 22 22 22 23 23 23 23 23 23 22 21 20 21 19 20 19 18 18 18 18 21 20 21 20 19 19 17 17 17
17 17 18 18 19 19 19 19 20 20 20 20 20 20 21 22 22 22 22 22 22 23 23 23 23 23 21 21 19 20 21 21 19 18 19 18 20 21 20 20 19 19 18 17 17
17 18 18 19 19 20 20 20 20 21 20 20 20 21 22 22 22 22 22 23 23 23 23 23 22 21 21 20 21 21 21 22 20 20 19 19 21 19 19 19 20 19 19 18 17
17 18 19 19 20 20 20 21 21 21 20 20 21 21 22 22 22 22 22 23 23 23 23 23 22 21 21 22 22 21 22 21 21 20 20 19 21 20 18 20 20 20 20 18 18
17 18 19 20 20 21 21 21 21 21 20 20 21 21 22 22 23 23 23 23 23 23 23 23 22 23 22 23 24 22 22 21 22 21 20 21 21 20 20 19 18 20 20 20 19
17 18 19 20 21 21 21 21 20 20 21 22 21 22 23 23 23 23 23 23 23 23 25 22 25 25 25 23 24 23 23 23 22 22 21 21 22 21 20 19 20 19 19 19 20
17 18 19 20 21 21 21 21 20 20 20 22 22 22 23 24 23 23 23 24 23 24 23 25 25 25 23 23 23 24 24 23 22 21 22 22 22 23 21 20 20 20 20 21 20
18 18 19 20 21 21 21 21 21 20 20 22 22 23 24 24 24 24 24 23 24 23 24 24 25 24 24 25 24 25 25 23 24 21 21 21 22 22 21 20 19 19 20 21 20
18 19 19 20 21 21 21 21 21 21 23 24 24 24 24 24 24 24 24 24 23 24 23 24 24 24 24 25 25 26 25 24 23 23 23 22 24 23 22 21 20 20 19 20 21
18 19 20 20 21 21 21 21 22 21 23 24 24 24 24 25 24 23 24 24 25 24 24 25 24 24 25 26 25 25 24 24 23 24 23 21 22 25 21 22 22 21 21 20 21
18 19 20 21 21 21 21 21 21 23 23 25 25 24 25 24 24 23 24 24 23 24 23 25 23 25 27 24 25 23 23 23 22 22 24 23 24 26 24 24 23 22 21 20 20
18 19 20 21 21 21 21 21 22 22 23 25 25 25 25 24 25 25 25 24 25 24 24 24 25 25 25 25 24 24 25 25 24 24 25 21 22 25 24 23 22 22 20 20 20
18 19 20 21 20 21 21 22 20 22 23 24 24 24 25 25 25 24 24 24 23 24 24 25 25 26 25 27 27 25 26 26 23 24 25 21 23 26 23 21 21 20 20 19 19
18 19 20 20 20 20 21 21 22 22 24 24 24 24 25 25 25 24 24 25 26 25 25 24 25 24 24 25 25 24 25 25 24 21 23 24 23 24 23 22 21 21 20 20 20
18 19 18 19 20 20 21 19 21 21 23 23 24 25 25 25 25 24 24 25 25 23 24 24 25 24 24 23 23 25 23 25 24 23 23 24 22 25 23 23 22 22 21 20 19
17 18 18 19 19 19 21 20 20 21 21 23 24 24 25 25 25 24 25 25 25 23 24 24 25 25 24 23 23 24 24 21 24 23 25 24 24 23 24 23 22 22 20 19 19
15 18 17 17 18 13 19 19 19 22 22 23 23 24 24 24 24 25 26 26 24 24 24 22 24 24 23 22 21 22 22 24 25 22 21 22 25 21 21 21 20 20 19 18 18
13 14 16 17 19 18 17 19 20 22 22 23 23 23 23 25 24 25 25 25 23 25 25 23 22 23 23 24 22 23 21 20 21 21 21 23 25 20 20 20 20 19 19 18 17
12 16 15 16 14 16 17 19 20 20 21 21 23 23 23 24 23 25 25 25 24 23 21 23 22 24 24 24 23 23 22 21 23 23 23 23 24 23 22 21 20 19 18 17 17
12 12 11 15 16 15 15 17 19 20 20 19 22 21 21 23 24 24 25 24 23 20 21 25 24 22 22 21 21 22 22 21 21 22 22 24 21 24 22 21 19 18 17 17 16
10 11 11 12 11 14 14 17 18 18 19 21 21 20 20 22 25 25 25 24 25 23 23 20 22 21 22 20 20 21 22 21 21 21 20 22 21 22 20 18 17 17 17 17 16
10 10 10 12 13 15 16 16 16 16 18 18 19 19 20 21 21 23 23 22 25 25 22 23 21 22 23 19 20 21 23 23 23 22 22 22 23 19 19 18 18 17 15 16 16

GFSSW_850_temp_168.txt.gz
Temp
17 17 17 17 17 17 17 18 18 18 19 19 19 20 20 21 21 22 22 23 23 23 23 22 22 22 23 23 22 22 25 23 22 23 22 23 25 23 23 23 22 22 22 21 18
17 17 17 17 18 18 18 18 18 18 19 19 19 20 20 21 22 21 23 23 23 23 22 23 24 24 25 23 23 25 25 21 19 19 21 23 25 24 24 24 22 21 20 19 18
17 17 18 18 18 18 18 18 18 18 19 19 19 20 20 21 21 24 23 23 23 23 23 23 24 25 26 24 24 24 24 21 18 17 21 24 24 24 25 26 24 22 20 19 19
17 17 18 18 18 18 18 18 18 18 19 19 19 20 20 21 26 22 23 23 23 23 23 24 25 26 27 26 23 24 22 20 18 18 20 23 23 25 24 24 23 22 21 20 19
17 17 18 18 19 19 19 18 19 19 19 19 20 20 21 22 23 22 22 23 23 23 24 25 26 27 28 26 25 25 24 21 17 18 19 22 22 24 23 23 22 21 20 20 20
17 18 18 19 19 19 19 19 19 19 19 20 20 20 21 25 22 22 22 23 22 23 24 24 26 26 26 25 25 23 23 22 20 18 18 22 24 22 23 23 22 21 21 21 20
17 18 18 19 19 20 20 20 20 20 20 20 20 21 21 23 22 22 22 21 22 23 24 24 25 25 25 25 24 24 24 22 21 19 20 19 22 21 23 23 23 23 22 21 20
17 18 19 19 20 20 20 20 21 21 21 21 20 21 24 22 22 22 22 22 22 22 24 23 24 25 26 24 25 25 26 24 23 19 21 21 20 23 22 23 24 23 22 21 21
17 18 19 20 20 21 21 21 21 21 21 21 21 22 25 22 22 22 22 23 23 23 23 23 24 26 25 26 27 26 26 25 24 24 23 22 23 23 20 22 24 24 23 23 22
17 18 19 20 20 21 21 21 21 21 21 21 21 21 23 24 23 22 22 23 24 24 24 25 26 28 28 26 25 26 27 26 26 25 24 24 24 23 22 22 23 24 24 23 23
17 18 19 20 21 21 21 21 20 20 21 24 25 24 24 23 23 23 23 24 25 26 28 27 28 28 28 26 28 28 28 27 26 26 25 25 26 24 23 22 22 23 24 24 24
17 18 19 20 21 21 21 21 21 21 24 22 22 22 23 24 25 24 24 26 26 27 27 28 28 29 28 27 27 28 28 28 26 25 25 26 26 26 25 24 24 24 22 23 23
17 18 19 20 21 21 21 21 21 21 24 24 24 25 24 24 26 26 25 26 27 27 28 28 29 28 28 28 27 28 29 28 27 26 26 25 27 27 27 24 24 24 23 24 22
17 18 19 20 21 21 21 21 22 22 27 27 27 26 24 26 26 25 25 26 27 27 27 28 29 27 28 28 28 28 29 28 27 26 27 26 27 28 28 25 25 24 23 24 23
17 18 19 20 21 20 20 21 22 21 26 28 27 25 25 27 26 25 25 26 27 27 27 28 28 28 27 28 29 29 28 28 27 28 28 27 27 28 27 28 27 25 24 24 24
18 18 19 21 21 21 21 22 21 26 26 27 27 27 27 27 27 26 25 26 26 27 28 28 27 28 29 29 29 28 28 28 28 29 28 28 28 29 29 29 28 27 25 24 24
18 19 20 20 20 21 21 21 26 26 27 27 28 28 29 28 28 28 27 27 27 26 27 28 28 29 28 29 29 29 29 28 28 28 28 29 28 29 30 28 28 27 26 25 24
18 19 20 20 20 21 21 25 24 27 28 28 28 29 28 29 29 28 28 28 28 28 28 28 27 29 30 29 29 29 30 29 26 28 29 28 27 29 29 27 26 25 25 23 24
17 18 18 19 20 20 22 25 27 27 28 28 28 28 28 28 28 28 28 29 29 29 28 28 28 29 28 29 29 29 28 31 29 29 28 29 29 29 28 28 26 26 24 24 24
17 17 17 19 20 20 24 23 26 26 26 27 27 29 28 29 28 28 28 30 29 29 30 29 27 29 28 28 28 28 30 28 29 26 26 28 27 28 28 28 27 27 26 25 24
17 19 17 19 19 21 24 25 26 25 25 27 28 28 29 29 29 29 29 29 29 29 29 30 29 28 28 28 29 28 28 29 30 28 27 27 28 30 29 29 27 26 25 25 24
14 22 17 18 22 23 25 24 22 26 25 26 26 27 28 29 29 29 29 30 29 28 28 29 30 28 28 27 26 28 28 29 28 27 28 27 28 28 27 26 25 25 24 23 23
15 17 17 17 23 23 23 23 24 25 26 26 27 27 28 28 27 29 29 29 28 29 29 29 29 27 27 28 27 27 27 28 28 29 27 27 28 26 26 25 25 24 24 23 22
14 20 19 19 19 22 23 24 24 23 24 24 26 26 27 27 28 28 28 28 28 29 25 27 29 27 27 27 28 27 27 27 27 27 27 28 27 28 28 26 25 24 23 22 22
15 18 15 21 20 21 21 22 23 23 24 23 25 25 26 27 28 28 29 28 27 24 27 29 27 27 28 27 27 27 27 27 26 27 25 26 27 27 28 26 25 23 22 21 21
14 15 16 17 17 19 16 22 22 23 22 24 24 24 24 25 28 28 29 29 28 27 28 28 27 27 27 27 26 26 27 27 26 26 26 26 26 28 25 24 23 22 21 21 21
11 11 13 16 19 19 21 21 21 20 22 22 22 22 24 24 22 23 26 28 29 28 28 28 27 26 26 26 26 25 26 27 27 27 27 25 27 26 25 24 23 22 21 20 20

GFSSW_850_temp_171.txt.gz
Temp
17 17 17 17 18 18 18 18 18 18 19 19 20 20 21 21 22 22 23 24 24 24 24 24 24 25 26 27 25 26 24 23 23 20 22 26 27 26 26 26 25 25 24 23 22
17 17 17 18 18 18 18 18 18 18 19 19 20 20 21 21 22 22 24 24 24 24 23 25 26 27 28 28 27 28 24 24 23 21 20 24 26 27 27 26 25 24 23 21 21
17 17 17 18 18 18 18 18 19 19 19 19 20 20 21 21 21 26 24 24 24 24 24 26 27 27 29 29 27 27 25 23 21 18 21 26 27 27 26 28 26 24 23 22 22
17 17 18 18 18 19 19 19 19 19 19 20 20 20 21 21 27 23 24 24 24 24 24 26 27 29 30 27 28 25 25 22 20 18 22 24 26 27 27 27 26 24 23 23 22
17 18 18 18 19 19 19 19 19 19 19 20 20 20 21 22 26 22 23 24 24 23 25 27 28 30 29 28 27 25 24 23 19 18 22 24 24 27 26 26 25 24 23 23 23
17 18 19 19 19 19 19 19 19 20 20 20 20 21 21 26 24 22 22 23 24 25 26 27 29 29 29 29 28 27 25 24 22 19 21 23 22 25 26 25 25 24 24 24 23
17 18 19 19 20 20 20 20 20 20 20 20 21 21 21 25 24 23 23 24 25 26 27 27 28 28 28 29 27 27 25 24 23 20 22 21 20 24 25 26 25 25 25 24 23
17 18 19 20 20 21 21 21 21 21 21 21 21 22 26 24 24 23 24 24 24 25 26 27 27 28 28 28 28 28 25 24 25 25 23 22 19 21 26 26 26 26 25 24 23
17 18 19 20 20 21 21 21 21 21 21 21 22 21 27 24 24 25 25 25 25 26 26 26 27 26 29 27 27 27 24 26 25 24 23 23 19 20 24 24 26 26 25 25 24
17 18 19 20 21 21 21 22 22 22 21 21 22 23 25 26 26 25 25 26 26 26 27 27 28 30 31 20 19 27 28 28 25 27 27 26 24 23 23 24 26 27 26 25 25
18 18 19 20 21 21 22 22 20 20 21 26 27 27 27 26 25 25 25 26 27 27 29 29 30 30 28 27 17 20 28 29 29 28 28 26 23 25 25 25 25 27 26 25 25
18 18 19 20 21 21 22 22 24 23 27 26 26 26 27 26 27 26 26 27 28 28 30 30 29 31 30 30 28 28 30 30 29 29 28 28 28 28 26 26 25 26 26 25 25
18 18 19 20 21 22 22 24 23 23 26 27 27 27 27 27 28 27 27 28 29 29 30 30 32 31 30 30 29 30 30 30 30 29 29 29 25 29 28 26 26 26 25 26 26
17 18 19 20 21 22 23 23 23 23 27 29 28 28 27 28 29 28 27 28 30 29 30 30 32 30 30 30 30 30 31 31 30 29 20 30 19 18 29 28 27 27 27 26 25
17 18 19 20 21 22 23 23 23 23 27 30 30 28 28 29 28 28 28 28 29 29 30 30 30 30 29 30 31 31 31 31 30 30 31 30 30 27 31 29 29 28 27 27 25
17 18 19 19 21 22 22 22 23 27 28 30 30 29 29 29 29 28 28 28 29 30 30 31 31 31 31 32 31 31 31 31 31 32 30 32 30 28 28 30 30 30 28 27 27
17 18 19 20 22 21 22 23 27 28 31 30 30 30 30 30 30 29 29 29 29 28 29 30 30 31 31 30 31 31 31 30 29 30 29 31 30 31 30 31 31 30 29 28 26
18 18 20 20 19 20 21 26 26 31 31 32 32 31 30 31 31 30 29 29 30 31 31 29 29 31 31 31 31 31 32 31 28 30 31 30 30 31 32 31 30 29 29 27 27
18 18 19 19 19 19 23 26 28 30 32 31 31 30 30 31 31 30 30 31 31 31 30 31 30 32 32 32 32 31 30 33 31 32 31 32 31 32 32 31 30 30 28 28 27
18 19 22 19 19 20 25 25 30 31 30 30 30 31 30 31 30 31 30 32 31 32 32 31 30 31 31 31 31 31 32 30 31 28 28 31 30 30 30 30 31 30 30 28 27
17 21 20 19 20 22 25 28 29 29 28 29 30 31 31 32 31 31 31 32 32 32 32 32 31 30 31 30 31 30 30 31 32 31 30 29 29 32 31 31 30 30 29 28 27
17 24 20 20 23 25 27 28 25 29 28 29 30 30 31 32 31 31 31 32 32 32 30 32 32 30 30 31 32 31 31 31 30 29 31 30 30 32 31 31 29 29 28 27 26
18 22 21 21 25 27 27 28 27 28 29 29 29 30 31 31 30 31 32 32 31 31 31 32 30 29 30 31 30 29 31 31 32 32 29 29 29 30 30 29 28 27 28 26 25
17 24 23 22 24 25 27 27 27 27 28 28 28 29 30 29 31 30 31 32 31 31 28 30 31 30 29 26 28 28 29 30 30 29 30 30 29 27 30 29 29 27 26 26 25
19 23 20 25 25 25 25 26 26 27 27 27 27 28 28 28 29 30 30 31 31 27 29 30 29 30 30 31 30 29 29 30 29 28 28 29 29 29 30 29 28 27 26 25 24
17 19 20 21 22 22 21 24 25 26 27 27 27 28 29 28 29 28 30 31 30 30 29 31 28 29 29 30 29 28 29 29 29 29 29 29 28 30 29 27 26 26 25 25 24
15 16 16 20 22 23 24 25 24 25 25 25 26 26 26 27 26 26 27 29 31 30 29 29 29 28 27 29 28 28 29 29 29 29 29 28 29 30 28 27 26 26 25 24 24

GFSSW_850_temp_174.txt.gz
Temp
17 17 18 18 18 18 18 18 18 19 19 20 20 21 21 22 22 22 23 24 24 25 24 24 24 26 27 28 28 28 19 22 23 22 19 22 27 27 27 27 27 25 24 21 20
17 17 18 18 18 18 18 18 18 19 19 20 20 21 21 22 22 22 24 24 24 25 25 25 27 28 29 26 25 26 23 24 24 20 19 21 24 28 28 27 26 25 24 22 20
17 18 18 18 19 19 19 19 19 19 19 20 20 21 21 22 22 25 25 25 25 25 25 25 28 29 29 26 22 27 25 24 22 21 21 21 24 28 27 27 26 25 24 23 21
17 18 18 19 19 19 19 19 19 19 19 20 20 21 21 21 26 25 25 25 25 25 24 26 28 29 30 25 22 25 26 24 23 20 18 17 22 28 28 28 26 25 24 24 24
17 18 19 19 19 19 19 19 19 20 20 20 20 21 21 21 24 25 25 25 25 25 24 27 29 30 30 26 24 22 25 24 21 20 19 18 22 24 27 27 26 25 25 24 25
17 18 19 19 20 20 20 20 20 20 20 20 21 21 21 24 25 24 25 25 25 25 26 28 29 30 29 26 26 26 25 24 22 21 22 22 19 22 27 26 26 25 25 25 24
17 17 18 19 20 20 21 21 21 21 20 21 21 21 20 25 26 25 24 24 25 27 28 29 29 29 28 26 29 27 26 25 24 23 23 22 20 19 23 27 26 26 26 25 24
17 18 18 19 20 21 21 21 21 21 21 21 21 21 22 26 26 25 26 26 26 27 27 28 28 29 28 25 26 28 26 24 25 24 23 24 19 20 24 22 27 27 26 25 24
17 18 18 19 20 21 21 22 22 22 21 22 22 22 26 25 25 26 26 27 27 27 27 28 28 29 30 26 20 21 21 24 25 26 24 25 21 20 21 22 26 26 26 25 25
17 18 18 19 20 21 22 22 22 22 21 22 22 22 25 27 27 27 27 27 27 27 28 28 29 30 28 19 18 16 20 22 24 26 26 25 23 22 21 24 25 26 26 25 25
18 18 19 19 20 21 22 22 21 20 20 25 26 27 29 28 27 27 27 27 28 28 29 29 30 29 23 22 21 20 22 23 26 26 25 24 25 24 23 25 26 26 25 26 25
18 18 19 20 21 22 22 22 26 26 27 25 27 28 28 28 27 27 27 28 29 29 30 30 29 27 25 21 24 25 24 28 30 30 25 21 25 25 25 25 26 27 26 24 24
17 18 19 20 21 22 23 23 25 25 27 29 29 28 28 28 29 28 28 28 29 29 30 30 32 32 27 22 26 27 27 29 30 30 29 22 21 17 19 23 26 25 26 24 24
17 18 19 21 22 23 24 24 25 26 27 30 29 29 29 29 30 29 28 29 30 30 31 31 32 32 31 31 32 31 32 32 31 30 26 23 21 18 21 21 27 26 26 24 24
17 18 19 19 21 22 25 25 25 26 25 30 31 30 29 30 30 30 29 29 30 31 31 30 31 31 30 31 32 31 32 31 32 30 24 25 24 23 18 21 23 28 26 26 27
17 17 19 19 21 23 24 25 25 27 27 31 31 30 31 30 31 30 29 29 30 31 31 31 32 32 32 32 32 33 31 32 32 32 29 29 20 25 23 21 17 28 29 27 27
18 18 19 20 21 23 24 24 26 26 33 31 31 31 31 31 31 30 29 29 29 28 29 30 31 32 32 31 32 31 31 29 29 29 29 32 30 27 29 27 26 29 29 29 28
18 19 20 21 21 21 23 26 25 30 31 34 33 32 30 32 32 30 30 29 31 31 31 30 29 31 32 31 31 31 31 30 26 25 25 26 27 28 31 31 31 30 30 29 28
18 19 20 21 21 21 24 25 27 30 33 33 33 31 31 32 32 31 30 31 32 32 30 31 31 33 33 32 32 32 31 33 31 32 32 31 31 32 32 31 31 30 29 29 28
18 19 23 22 21 22 24 24 29 31 33 32 31 32 31 32 31 31 31 32 32 33 33 32 30 32 32 32 32 31 33 30 31 29 29 30 30 29 30 31 31 31 30 29 28
18 21 22 22 22 23 24 26 29 30 31 30 30 31 32 32 32 32 32 33 33 33 33 32 32 31 32 31 31 31 31 31 32 31 29 29 29 31 31 31 31 31 30 29 29
16 24 22 22 23 25 26 28 29 30 31 30 30 30 30 31 32 32 32 33 33 33 31 32 32 31 31 33 33 33 32 32 30 29 30 30 27 32 31 32 31 31 30 29 28
15 21 23 22 24 26 28 28 29 30 30 30 30 30 31 31 30 32 33 34 33 33 32 32 31 29 30 31 32 30 31 32 32 32 30 29 28 30 30 29 29 30 29 28 27
15 24 25 24 24 26 27 28 29 29 29 29 30 30 30 30 31 31 32 33 33 32 29 31 31 30 29 28 26 29 30 31 31 29 30 30 28 29 29 28 28 26 28 27 26
16 24 23 24 26 26 27 27 27 28 29 29 28 29 29 28 30 30 32 32 33 28 31 31 29 30 31 31 31 30 30 31 30 30 28 29 29 29 30 29 28 27 27 27 26
17 19 19 20 23 24 23 25 25 27 28 28 27 29 29 28 29 29 30 30 31 30 31 31 29 29 29 31 31 30 30 30 30 30 30 30 29 31 30 29 28 27 26 26 26
17 16 18 20 22 24 25 26 26 27 27 27 28 28 28 29 27 27 27 28 30 30 29 30 29 29 27 30 29 28 30 30 30 30 30 29 30 30 30 29 28 27 26 26 26